Location: Newark
(7.0858°N, 171.3717°E)
Time: 03:38:14
(UTC+00:00)

Vanguard 2 - Pass Details

Date: 04 December 2020
Orbit: 553 x 2937 km, 32.9° (Epoch: 26 January)

Event Time Altitude Azimuth Distance (km) Brightness Sun altitude
Rises 17:12:39 0° 236° (SW) 6,750 12.0 -19.4°
Reaches altitude 10° 17:17:22 10° 236° (SW) 5,617 11.6 -18.3°
Maximum altitude 17:33:55 86° 325° (NW) 2,164 9.7 -14.5°
Drops below altitude 10° 17:44:16 10° 54° (NE) 3,708 11.5 -12.1°
Sets 17:46:45 0° 55° (NE) 4,425 11.9 -11.5°
